User: anonymous   Login
Location: ActonStarParty
(42.4766°N, 71.4538°W)
Time: 22:30:03
(UTC-04:00)
Language:

Cosmos 1300 - Orbit

View from above orbital plane
View from above orbital plane
View from above satellite
View from above satellite

Ground track
Ground track

The orbit data is extracted from the following two-line orbital elements,

1 12785U 81082A   17119.66393069 +.00000534 +00000-0 +25649-4 0  9995
2 12785 082.5015 121.2537 0002775 075.2158 045.7791 15.16668699944250
Epoch (UTC): 29 April 2017 15:56:03
Eccentricity: 0.0002775
inclination: 82.5015°
perigee height: 514 km
apogee height: 518 km
right ascension of ascending node: 121.2537°
argument of perigee: 75.2158°
revolutions per day: 15.16668699
mean anomaly at epoch: 45.7791°
orbit number at epoch: 94425

The dashed part of the orbit path shows where the satellite is in the earth's shadow,  

DLR